{"data":{"norad_id":68990,"epoch":"2026-09-20T04:30:40.756608Z","epoch_age_seconds":46324,"freshness":"FRESH","line1":"1 68990U 26100L   26263.18797172  .00001310  00000+0  13741-3 0  9995","line2":"2 68990  97.7175 158.5674 0004638 193.4290 166.6806 14.91193795 20852","mean_motion":14.91193795,"eccentricity":0.0004638,"inclination_deg":97.7175,"raan_deg":158.5674,"arg_perigee_deg":193.429,"mean_anomaly_deg":166.6806,"bstar":0.00013741,"rev_number":2085,"period_min":96.566925427691,"perigee_km":590.97820110446,"apogee_km":597.44575201511,"semimajor_km":6972.3489765598,"source":"CELESTRAK","updated_at":"2026-09-20T09:00:24.601163Z"}}